Ketchikan, AK

2:20 PM AKDT on July 22, 2018 (GMT -0800)
Ketchikan International

Weather History for PAKT - July, 2018

Change the Weather History Date:

Thursday, July 19, 2018

  Actual Average Record
Temperature  
Mean Temperature 60 °F -  
Max Temperature 68 °F 67 °F 77 °F (1956)
Min Temperature 55 °F 52 °F 43 °F (1976)
Degree Days  
Heating Degree Days 4    
Growing Degree Days 10 (Base 50)    
Moisture  
Dew Point 50 °F    
Average Humidity 68    
Maximum Humidity 86    
Minimum Humidity 49    
Precipitation  
Precipitation 0.00 in - - ()
Sea Level Pressure  
Sea Level Pressure 30.19 in    
Wind  
Wind Speed 8 mph (NW)    
Max Wind Speed 13 mph    
Max Gust Speed -    
Visibility 10 miles    
Events      
Averages and records for this station are not official NWS values.
T = Trace of Precipitation, MM = Missing Value Source: NWS Daily Summary

Daily Weather History Graph

Daily Weather History Graph

Search for Another Location

Airport or City:

Astronomy

Jul. 19, 2018 Rise Set
Actual Time 4:32 AM AKDT 9:13 PM AKDT
Civil Twilight 3:39 AM AKDT 10:04 PM AKDT
Nautical Twilight 2:11 AM AKDT 11:30 PM AKDT
Astronomical Twilight Sun does not set Sun does not set
Moon 1:22 PM AKDT (7/19) 12:01 AM AKDT (7/19)
Length of Visible Light 18h 24m
Length of Day
16h 40m
Waxing Crescent, 50% of the Moon is Illuminated
Jul 19
Waxing Crescent
Jul 27
Full
Aug 4
Last Quarter
Aug 11
New
Aug 17
First Quarter

Hourly Weather History & Observations

Time (AKDT) Temp. Dew Point Humidity Pressure Visibility Wind Dir Wind Speed Gust Speed Precip Events Conditions
12:53 AM 57.0 °F 48.9 °F 74% 30.21 in 10.0 mi NW 5.8 mph - N/A   Overcast
1:53 AM 55.9 °F 51.1 °F 84% 30.21 in 10.0 mi NW 5.8 mph - N/A   Partly Cloudy
2:53 AM 55.9 °F 50.0 °F 80% 30.21 in 10.0 mi NW 5.8 mph - N/A   Mostly Cloudy
3:53 AM 55.9 °F 50.0 °F 80% 30.20 in 10.0 mi NNW 6.9 mph - N/A   Overcast
4:53 AM 55.9 °F 50.0 °F 80% 30.19 in 10.0 mi NNW 8.1 mph - N/A   Mostly Cloudy
5:53 AM 55.0 °F 51.1 °F 86% 30.19 in 10.0 mi NW 5.8 mph - N/A   Overcast
6:06 AM 55.9 °F 51.1 °F 84% 30.19 in 10.0 mi NW 5.8 mph - N/A   Overcast
6:53 AM 57.0 °F 51.1 °F 81% 30.20 in 10.0 mi NW 6.9 mph - N/A   Mostly Cloudy
7:53 AM 57.9 °F 51.1 °F 78% 30.20 in 10.0 mi NW 9.2 mph - N/A   Mostly Cloudy
8:53 AM 60.1 °F 50.0 °F 69% 30.19 in 10.0 mi NNW 10.4 mph - N/A   Mostly Cloudy
10:53 AM 60.8 °F 48.2 °F 63% 30.19 in 10.0 mi NW 12.7 mph - N/A   Overcast
11:53 AM 60.8 °F 50.0 °F 68% 30.19 in 10.0 mi NW 9.2 mph - N/A   Mostly Cloudy
12:53 PM 62.6 °F 50.0 °F 63% 30.19 in 10.0 mi NNW 12.7 mph - N/A   Mostly Cloudy
1:53 PM 64.4 °F 48.2 °F 56% 30.19 in 10.0 mi NW 10.4 mph - N/A   Mostly Cloudy
2:53 PM 64.0 °F 48.0 °F 56% 30.19 in 10.0 mi NW 10.4 mph - N/A   Mostly Cloudy
3:53 PM 64.9 °F 48.0 °F 54% 30.18 in 10.0 mi NW 9.2 mph - N/A   Scattered Clouds
4:53 PM 66.2 °F 46.4 °F 49% 30.17 in 10.0 mi WNW 9.2 mph - N/A   Partly Cloudy
5:53 PM 66.2 °F 48.2 °F 52% 30.17 in 10.0 mi NNW 9.2 mph - N/A   Partly Cloudy
6:53 PM 66.2 °F 48.2 °F 52% 30.16 in 10.0 mi NW 9.2 mph - N/A   Clear
7:53 PM 64.4 °F 46.4 °F 52% 30.16 in 10.0 mi WNW 5.8 mph - N/A   Partly Cloudy
8:53 PM 62.1 °F 48.9 °F 62% 30.17 in 10.0 mi Variable 6.9 mph - N/A   Scattered Clouds
9:53 PM 62.1 °F 51.1 °F 67% 30.17 in 10.0 mi North 8.1 mph - N/A   Mostly Cloudy
10:53 PM 60.1 °F 51.1 °F 72% 30.19 in 10.0 mi North 10.4 mph - N/A   Partly Cloudy
11:53 PM 59.0 °F 51.1 °F 75% 30.19 in 10.0 mi NNW 9.2 mph - N/A   Mostly Cloudy